OV1-5 R/B, 2123

Orbit data source: Space-Track

OV1-5 R/B, 2123 is space debris in LEO originally from a launch on Wed, 30 Mar 1966 UTC launched from the Air Force Western Test Range (AFWTR). Debris objects in space refer to the collection of defunct objects orbiting the Earth. Examples of debris include non-operational satellites, rocket bodies, and fragments generated from explosions, collisions, or faulty payload assembly.

Loading next visibility...
Identifier
2123, 1966-025C
Orbit
LEO
Country
Flag of USUS
Related business
Manufacturer
ABL
Mission
Spacecraft
Bus & Motor
ALTAIR, Unknown motor
Mass
~125 kg wet, ~125 kg dry
Launch date (UTC)
1966-03-30 (60 years ago)
Launch vehicle
Unknown
Launch site
Air Force Western Test Range (AFWTR)
Object type
Payload
Rocket body
Debris
Shape & HBR
Unknown
Radar Cross Section
Medium (>0.1 m² and <1 m²)

Expand to show TLE details & history
Last TLE update: 13 hours ago

TLE from 13 hours ago
0 OV1-5 R/B
1  2123U 66025C   26035.38471846  .00000334  00000-0  90307-4 0  9997
2  2123 144.6436 359.5879 0046007  73.5577 287.0145 13.65886496986629
Epoch: 2026-02-04T09:13Z
TLE epoch observation values (Epoch: 2026-02-04T09:13:59.674Z)
Latitude
-0.00007°
Longitude
86.53729°
Altitude
1,003.588 km
Speed
7.357 km/s
True Right ascension
23h 58m 21s
True Declination
0° 00' 00"
Sunlit
Object was in daylight at epoch
Visualization orbit readout
Latitude
Unknown
Longitude
Unknown
Altitude
Unknown
Speed
Unknown
Apparent Right ascension
Unknown
Apparent Declination
Unknown
Sunlit
N/A
Visualization observer readout
Local Sidereal Time
00:13:36
Azimuth
Unknown
Elevation
Unknown
Doppler factor
Unknown
Orbital elements
Apogee altitude
1,051.371 km
Perigee altitude
983.322 km
Semi-major axis
7,395.484 km
Eccentricity
0.0046
Inclination
144.6436°
RAAN
359.5879°
Arg. of periapsis
73.5577°
True anomaly
286.50953°
Mean anomaly
287.0145°
Eccentric anomaly
286.7621°
Mean motion
3.41266 °/min
Orbital period
105.49 mins
BSTAR
0.000090307
Loading maneuver chart data...
Computing Atmospheric mass density...
Loading historical data...
Loading historical data...
Loading historical data...
Loading historical data...
Loading historical data...
Loading historical data...
Loading historical data...

Documentation

Showing up to 5 results
|